TEMPSAT 1

Last updated on Fri Dec 29 2023 00:03:35 GMT+0000 (Coordinated Universal Time)

1 01512U 65065E 23361.65831302 .00000078 00000+0 13874-3 0 9994 2 01512 89.9432 214.8869 0068046 262.9569 164.8319 13.33499488839764
UTC large
Height (km)
Speed (km/s)
/
Latitude / Longitude
Inclination (degrees)
Orbital Period (minutes)
Azimuth
Elevation
Range (km)
Doppler Factor

Next 0 passes for location: London (51.5072 / 0.1276)

Sorry there are no passes over London.